Wind_Speed
31 32 32 32 33 33 33 34 34 34 35 36 36 36 35 34 34 35 35 34 34 34 34 35 35 35 35 36 36 36 36 36 36 37 38 38 38 38 38 38 38 37 37 38
33 33 33 34 35 35 35 35 36 36 36 37 37 36 35 34 34 35 35 35 34 34 34 35 35 35 36 36 36 36 35 35 36 36 37 38 38 39 39 38 38 38 37 37
33 34 34 35 36 37 37 37 37 38 38 38 39 37 34 33 34 35 35 35 34 34 34 34 35 35 36 36 36 36 36 36 36 37 37 38 38 39 39 39 38 38 38 38
34 34 35 35 36 37 38 37 38 38 38 38 38 39 33 33 33 34 34 34 35 35 34 34 34 34 34 35 36 36 37 37 37 37 38 38 39 39 39 39 39 39 38 38
34 34 35 35 36 37 37 37 37 37 38 38 36 38 34 33 33 33 33 34 34 35 34 34 34 34 35 36 36 37 37 37 37 37 38 39 39 39 40 40 40 39 39 39
35 35 35 36 36 36 37 37 37 38 38 38 36 38 35 32 33 33 33 34 34 34 34 34 34 35 35 36 36 37 37 37 37 37 37 38 39 39 40 40 40 40 39 39
36 36 36 35 36 36 36 37 37 37 38 38 36 37 35 33 33 33 33 33 33 33 34 34 34 34 35 35 36 36 37 37 37 38 37 37 39 39 39 40 40 40 40 39
37 36 35 35 35 35 35 36 36 37 38 38 37 37 35 33 32 32 32 32 32 32 32 33 34 34 34 35 36 36 36 37 37 37 37 38 38 39 40 40 40 40 39 39
37 36 35 35 34 34 34 35 35 37 38 38 37 36 35 33 32 31 32 32 32 32 33 33 33 33 34 34 35 35 36 36 36 37 37 38 38 38 39 40 40 40 40 40
37 37 35 34 34 33 34 34 34 34 36 37 37 35 34 33 32 32 32 32 33 33 33 33 33 34 34 35 35 35 35 35 36 37 37 38 38 38 38 38 39 39 39 40
36 36 35 33 33 32 33 33 34 35 36 36 37 35 33 33 32 32 32 33 34 34 34 33 33 34 34 35 36 36 35 35 35 36 36 37 37 37 37 37 38 39 39 39
34 35 34 33 33 33 33 33 33 35 35 36 38 36 34 34 34 33 33 34 34 34 34 33 33 33 34 34 34 35 35 35 35 35 36 36 36 36 36 37 37 38 38 38
33 33 33 33 33 34 34 34 34 35 36 37 38 38 36 36 36 35 34 34 34 34 34 34 33 33 33 33 33 33 34 35 35 35 35 35 35 35 36 36 37 37 37 37
32 33 33 33 34 34 34 34 34 35 36 37 38 38 36 37 37 36 35 35 34 34 35 35 34 33 33 33 32 33 34 33 33 33 34 34 34 34 34 34 34 35 35 36
33 32 32 32 33 34 34 34 34 35 36 38 38 38 37 36 37 37 36 35 35 34 34 34 33 33 33 33 33 33 33 33 33 32 32 33 32 32 32 32 32 33 34 35
32 32 32 32 32 33 33 33 34 35 36 38 38 37 36 35 35 35 34 34 33 33 33 33 32 32 32 32 32 32 32 32 31 31 31 32 31 30 30 30 31 33 34 35
31 31 31 32 32 33 32 32 32 34 35 36 37 35 34 34 33 33 33 32 32 32 32 31 31 30 30 30 30 31 31 31 30 30 30 30 30 30 30 31 32 32 33 35
31 30 31 32 32 34 32 30 31 33 33 34 34 33 32 32 32 31 32 32 32 31 31 31 30 29 30 30 30 30 30 30 30 30 30 30 30 30 30 31 32 32 34 35
30 29 30 31 32 33 31 30 30 31 32 32 32 31 31 31 31 31 31 32 32 31 31 31 31 30 30 30 30 30 29 29 30 30 30 30 31 30 31 32 32 33 34 34
29 30 30 31 31 31 28 27 28 30 31 30 31 31 31 30 31 29 30 30 30 30 30 31 31 31 31 30 30 30 30 30 30 30 31 30 30 31 31 32 33 33 34 34
28 29 30 30 31 30 28 28 28 29 29 29 30 30 31 30 30 29 29 29 30 30 30 30 30 30 31 31 31 31 31 31 30 30 31 31 31 31 31 31 32 32 32 33
28 29 29 30 30 29 28 29 29 29 29 29 30 30 31 30 30 29 29 30 30 30 30 30 30 30 30 30 31 30 30 30 31 30 31 30 31 31 31 31 32 32 33 32
28 28 29 29 29 28 29 29 29 29 29 29 29 29 30 30 30 29 30 30 30 29 29 29 29 29 29 29 30 30 30 30 31 31 30 30 30 30 31 31 31 31 32 31
27 27 28 28 27 27 28 29 29 29 29 28 28 29 29 29 29 29 29 28 28 28 28 28 28 29 29 28 29 29 30 30 30 30 30 30 30 31 30 30 30 31 31 31
25 26 27 27 27 27 27 28 29 29 28 28 28 28 28 28 28 28 27 27 26 27 27 27 27 27 27 28 28 29 29 30 30 30 30 30 30 30 30 29 29 29 30 30
24 26 26 26 26 27 26 26 27 28 27 27 27 27 27 27 26 26 26 26 26 26 26 26 26 26 27 28 28 28 28 29 29 29 29 29 29 29 29 29 29 29 29 28
Wind_Direction
265 265 265 267 268 270 272 272 273 273 272 271 271 270 269 268 266 266 266 266 266 266 265 264 263 262 262 262 261 262 262 261 261 261 260 259 259 260 261 262 262 263 263 263
266 266 267 267 268 269 272 273 273 273 273 272 271 270 270 269 266 265 265 265 264 264 265 264 263 262 262 262 262 262 261 261 261 262 261 260 260 260 260 261 262 263 264 264
270 269 269 269 269 270 271 273 273 273 273 273 272 270 268 267 265 264 264 264 264 264 265 265 264 263 263 262 262 262 262 262 262 261 261 260 260 260 260 261 262 264 264 265
272 271 271 270 271 271 272 273 274 274 274 273 272 272 267 265 265 264 264 264 264 264 264 264 264 264 263 263 262 261 262 263 262 262 261 261 261 261 261 261 261 263 264 265
274 274 273 272 272 272 273 273 273 273 273 272 270 271 268 265 265 266 265 265 264 263 263 263 263 263 263 262 262 262 262 262 262 262 262 262 261 261 261 260 260 262 263 265
272 273 273 272 272 273 273 273 273 272 272 271 270 270 269 267 268 268 267 266 265 263 263 262 262 262 262 263 263 263 264 263 262 262 262 262 262 262 261 261 261 261 262 264
272 273 272 271 272 272 272 273 273 273 272 271 271 271 271 271 270 270 269 267 265 263 262 261 262 263 263 263 264 264 265 264 263 263 263 263 263 263 263 262 261 261 262 263
276 275 272 271 272 272 272 272 272 273 274 274 273 273 273 272 270 270 270 269 266 263 263 263 263 264 263 263 265 266 266 266 264 263 264 264 264 264 264 263 262 261 262 264
276 274 272 271 271 271 271 270 270 271 273 274 274 273 272 272 271 269 269 267 266 264 264 265 265 264 264 265 265 267 267 266 265 265 265 265 265 265 265 264 262 261 262 263
275 274 271 270 270 268 269 270 269 269 273 274 274 273 274 273 273 271 268 266 265 264 264 264 265 265 265 266 266 266 266 266 266 266 266 266 266 266 266 265 263 262 262 264
273 272 270 268 268 269 268 268 266 267 269 273 274 275 275 275 274 272 269 267 265 265 265 265 264 265 266 267 266 265 265 266 267 267 266 265 266 266 266 265 264 263 264 265
274 272 270 267 268 268 268 267 268 269 269 272 275 275 275 274 273 272 270 267 265 264 264 265 265 266 267 268 268 267 266 267 268 267 266 266 266 266 266 267 266 265 265 266
275 273 271 268 267 267 267 267 267 268 269 271 273 274 274 273 273 271 270 267 266 264 264 265 266 266 267 268 268 268 268 268 267 267 266 266 267 267 267 267 267 267 267 268
272 272 272 270 270 269 269 268 268 269 269 270 272 274 273 273 273 271 269 267 266 265 264 265 266 266 267 267 267 268 267 267 267 267 266 267 268 268 269 268 268 269 269 269
271 271 272 271 268 268 268 268 269 270 272 273 274 275 275 274 273 271 269 266 265 265 265 265 266 266 267 267 266 267 266 267 267 267 267 267 268 269 268 267 268 269 270 271
271 271 271 270 268 268 268 268 270 271 273 275 275 275 274 272 272 271 269 266 265 264 265 265 266 266 267 267 266 266 266 267 268 267 267 268 268 268 267 267 268 270 271 272
273 272 271 269 268 268 269 270 272 273 275 275 275 275 273 270 270 271 269 265 264 263 264 264 265 265 265 266 266 266 265 265 267 267 267 268 269 269 270 269 269 271 273 273
273 274 274 272 268 269 270 272 274 274 275 276 275 273 273 271 271 270 268 265 264 263 263 263 263 264 265 266 265 266 265 265 265 267 267 267 270 271 271 272 273 273 274 274
272 273 275 274 271 270 270 273 275 275 275 275 275 273 273 272 270 270 268 266 264 262 262 262 262 264 265 265 265 266 266 264 264 266 267 269 270 270 271 272 273 274 275 276
272 273 274 275 274 273 273 272 274 276 275 274 274 273 272 271 270 269 267 265 265 263 261 261 261 263 264 264 263 265 265 265 266 267 268 269 270 270 272 273 274 275 278 277
273 273 275 277 276 276 276 273 274 277 279 277 275 274 272 271 269 268 266 265 266 265 264 262 262 263 263 263 263 265 265 266 267 268 269 270 270 270 273 274 274 276 278 278
273 275 276 276 275 277 276 274 275 277 278 278 277 275 273 272 270 268 268 267 266 265 264 263 263 263 263 263 263 264 265 265 266 269 270 270 271 272 272 273 275 276 278 279
274 275 276 276 277 275 272 273 274 275 277 277 277 276 275 273 271 269 269 267 266 264 263 263 262 263 264 264 264 264 265 265 267 268 270 270 270 272 272 273 274 276 277 279
275 275 276 276 274 271 270 270 271 273 275 277 277 277 276 274 271 269 268 266 265 264 263 262 263 264 264 263 264 265 265 266 267 269 270 270 270 270 272 273 274 275 278 279
276 276 276 276 275 271 269 269 269 270 273 276 278 278 277 275 271 268 267 267 265 264 264 263 264 263 263 264 265 266 266 266 268 270 270 270 271 271 273 274 275 276 278 279
275 276 276 276 275 273 271 270 269 271 273 276 278 278 277 275 270 267 265 264 264 264 263 263 263 263 263 264 265 266 267 268 269 269 270 272 272 271 272 272 275 277 280 279
Height
5709 5711 5710 5711 5711 5711 5711 5711 5711 5712 5710 5708 5708 5708 5710 5710 5709 5709 5709 5710 5711 5711 5711 5712 5712 5713 5713 5714 5715 5716 5716 5717 5718 5719 5720 5721 5722 5723 5724 5725 5725 5726 5727 5728
5702 5702 5703 5702 5702 5701 5701 5701 5701 5701 5700 5698 5698 5699 5700 5700 5700 5700 5700 5701 5701 5702 5702 5702 5703 5704 5704 5705 5706 5706 5707 5708 5709 5709 5710 5711 5712 5713 5714 5715 5716 5717 5718 5719
5692 5694 5693 5693 5692 5692 5692 5691 5691 5691 5690 5689 5688 5689 5691 5692 5690 5691 5691 5692 5692 5693 5693 5693 5694 5694 5695 5695 5696 5697 5698 5698 5699 5700 5700 5701 5702 5703 5704 5706 5707 5708 5709 5709
5683 5684 5684 5683 5683 5682 5682 5682 5681 5680 5679 5678 5679 5677 5683 5683 5682 5682 5682 5683 5683 5683 5684 5684 5685 5685 5685 5686 5687 5687 5688 5689 5689 5690 5690 5691 5692 5693 5695 5696 5697 5698 5699 5700
5675 5675 5674 5674 5674 5672 5672 5672 5671 5670 5668 5668 5669 5667 5672 5672 5673 5673 5673 5674 5674 5674 5675 5675 5675 5676 5676 5676 5677 5678 5678 5679 5679 5680 5680 5681 5682 5683 5684 5685 5687 5688 5689 5690
5666 5665 5664 5664 5664 5663 5662 5662 5661 5660 5659 5659 5660 5658 5661 5663 5664 5665 5665 5664 5664 5665 5665 5665 5666 5666 5667 5667 5668 5668 5669 5669 5669 5670 5670 5671 5671 5672 5673 5675 5676 5678 5679 5680
5656 5656 5655 5654 5654 5654 5653 5652 5651 5650 5649 5650 5651 5649 5653 5655 5655 5655 5655 5655 5655 5655 5656 5656 5657 5657 5658 5658 5658 5659 5659 5659 5659 5660 5660 5661 5661 5662 5663 5664 5666 5667 5669 5671
5645 5646 5646 5645 5645 5644 5644 5643 5643 5642 5641 5641 5642 5641 5646 5646 5646 5646 5646 5646 5646 5646 5647 5647 5648 5648 5649 5649 5649 5649 5649 5650 5650 5650 5651 5651 5651 5652 5652 5653 5654 5656 5659 5660
5635 5636 5636 5636 5635 5635 5634 5634 5635 5633 5631 5631 5632 5634 5636 5637 5637 5637 5637 5637 5637 5638 5638 5638 5639 5639 5639 5640 5640 5640 5640 5640 5640 5641 5641 5641 5641 5642 5642 5643 5644 5646 5648 5649
5625 5626 5627 5626 5626 5626 5626 5626 5625 5624 5622 5621 5623 5625 5627 5628 5628 5629 5628 5628 5628 5628 5629 5629 5630 5630 5630 5630 5631 5631 5631 5631 5631 5631 5631 5632 5632 5632 5632 5633 5634 5636 5637 5639
5616 5616 5617 5617 5617 5618 5618 5617 5616 5615 5614 5613 5613 5619 5619 5620 5619 5619 5620 5619 5619 5619 5620 5620 5621 5621 5621 5621 5621 5621 5622 5622 5622 5622 5622 5622 5622 5622 5623 5624 5625 5626 5627 5629
5607 5606 5607 5608 5609 5608 5608 5608 5608 5608 5607 5605 5605 5611 5611 5611 5610 5610 5610 5610 5609 5610 5610 5611 5611 5612 5612 5612 5612 5612 5612 5613 5613 5612 5613 5613 5613 5613 5614 5615 5616 5617 5618 5619
5598 5598 5598 5599 5601 5600 5599 5599 5599 5599 5598 5597 5596 5602 5602 5601 5601 5601 5601 5600 5600 5601 5601 5602 5602 5603 5603 5603 5603 5603 5603 5603 5603 5603 5603 5604 5604 5605 5605 5606 5606 5607 5608 5609
5589 5589 5590 5590 5590 5590 5590 5591 5590 5589 5588 5588 5589 5591 5593 5592 5591 5591 5591 5591 5591 5592 5592 5593 5593 5594 5594 5594 5594 5594 5595 5595 5594 5594 5595 5595 5595 5595 5596 5597 5597 5598 5598 5599
5580 5581 5581 5581 5580 5580 5580 5582 5582 5581 5580 5580 5581 5581 5583 5582 5581 5581 5581 5581 5582 5582 5583 5584 5584 5585 5585 5585 5585 5586 5586 5586 5586 5586 5586 5587 5587 5587 5587 5588 5588 5589 5589 5590
5572 5572 5572 5572 5572 5571 5571 5573 5573 5572 5572 5571 5571 5572 5573 5572 5571 5571 5571 5572 5573 5573 5574 5575 5575 5576 5576 5576 5577 5577 5577 5577 5578 5578 5578 5578 5579 5579 5579 5580 5580 5581 5581 5581
5564 5564 5563 5563 5563 5562 5564 5566 5565 5564 5563 5563 5561 5564 5563 5563 5562 5562 5562 5563 5564 5564 5565 5566 5566 5567 5567 5568 5569 5569 5569 5570 5570 5570 5571 5571 5571 5572 5572 5572 5572 5572 5573 5573
5556 5555 5554 5554 5555 5554 5559 5558 5557 5555 5555 5554 5553 5553 5553 5553 5554 5554 5554 5554 5555 5556 5557 5558 5558 5559 5560 5560 5561 5561 5561 5562 5562 5563 5563 5563 5564 5564 5564 5564 5564 5564 5564 5564
5548 5548 5546 5546 5545 5545 5549 5550 5548 5546 5547 5546 5545 5545 5544 5544 5545 5546 5546 5546 5546 5547 5548 5549 5550 5551 5551 5552 5553 5553 5553 5554 5554 5555 5555 5556 5556 5556 5556 5556 5556 5556 5555 5555
5541 5540 5540 5538 5537 5538 5543 5542 5539 5538 5538 5539 5537 5536 5536 5536 5536 5539 5538 5538 5538 5539 5540 5541 5542 5543 5544 5544 5545 5545 5546 5546 5547 5547 5547 5547 5547 5547 5548 5548 5548 5547 5546 5546
5534 5533 5532 5531 5529 5531 5534 5533 5532 5532 5532 5530 5529 5528 5528 5527 5528 5529 5529 5530 5530 5531 5532 5533 5534 5534 5535 5536 5536 5537 5538 5538 5539 5539 5539 5539 5539 5539 5539 5539 5539 5538 5538 5537
5526 5525 5525 5524 5523 5526 5525 5524 5524 5523 5522 5521 5520 5520 5519 5519 5520 5520 5521 5521 5522 5523 5523 5524 5525 5526 5526 5527 5528 5529 5529 5530 5530 5531 5531 5531 5531 5531 5531 5531 5530 5530 5529 5528
5519 5519 5517 5517 5519 5518 5517 5516 5515 5515 5514 5513 5512 5512 5511 5511 5512 5512 5513 5513 5514 5514 5515 5516 5516 5517 5518 5519 5520 5520 5521 5522 5522 5523 5522 5522 5522 5522 5522 5522 5522 5521 5520 5519
5512 5511 5510 5509 5510 5510 5509 5507 5507 5507 5506 5505 5504 5504 5504 5503 5504 5504 5505 5505 5505 5506 5507 5507 5508 5509 5509 5510 5511 5512 5513 5513 5514 5514 5514 5514 5514 5514 5513 5513 5513 5512 5512 5511
5505 5503 5502 5502 5502 5502 5501 5500 5499 5499 5498 5498 5497 5497 5496 5495 5495 5496 5496 5497 5498 5498 5499 5499 5500 5501 5502 5503 5503 5504 5505 5505 5505 5505 5505 5505 5505 5505 5505 5505 5504 5504 5503 5502
5498 5497 5495 5495 5495 5493 5493 5493 5492 5492 5491 5491 5490 5490 5489 5488 5488 5488 5489 5490 5490 5491 5492 5492 5493 5493 5494 5495 5496 5496 5497 5497 5497 5497 5497 5497 5497 5497 5497 5497 5496 5495 5495 5494